Location: York
(31.8935°S, 116.7682°E)
Time: 17:12:19
(UTC+08:00)

deb Explorer IX - Pass Details

Date: 01 October 2022
Orbit: 533 x 1057 km, 38.8° (Epoch: 30 November)

Event Time Altitude Azimuth Distance (km) Brightness Sun altitude
Rises 01:57:05 0° 258° (WSW) 2,764 - -45.8°
Reaches altitude 10° 01:59:52 10° 275° (W) 1,819 - -45.4°
Maximum altitude 02:02:54 20° 323° (NW) 1,276 - -45.0°
Drops below altitude 10° 02:05:52 10° 11° (N) 1,778 - -44.5°
Sets 02:08:33 0° 28° (NNE) 2,681 - -44.1°
